Location: Forli
(44.2227°N, 12.0407°E)
Time: 00:37:19
(UTC+02:00)

PCSat - Pass Details

Date: 19 April 2026
Orbit: 781 x 790 km, 67.1° (Epoch: 19 May)

Event Time Altitude Azimuth Distance (km) Brightness Sun altitude
Rises 22:33:20 0° 335° (NNW) 3,294 14.0 -23.9°
Reaches altitude 10° 22:36:11 10° 348° (NNW) 2,362 12.8 -24.2°
Maximum altitude 22:40:37 25° 44° (NE) 1,552 11.1 -24.8°
Enters shadow 22:41:41 24° 62° (ENE) 1,609 11.0 -24.9°
